Date,TemperatureHighF,TemperatureAvgF,TemperatureLowF,DewpointHighF,DewpointAvgF,DewpointLowF,HumidityHigh,HumidityAvg,HumidityLow,PressureMaxIn,PressureMinIn,WindSpeedMaxMPH,WindSpeedAvgMPH,GustSpeedMaxMPH,PrecipitationSumIn
2013-1-1,12.6,0.5,-9.7,-2.3,-11.3,-21.5,63,57,49,30.15,29.96,1,0,4,0.00
2013-1-2,9.3,-6.9,-18.8,-6.8,-19.6,-31.4,57,53,47,30.19,30.09,1,0,4,0.00
2013-1-3,7.5,-9.9,-23.7,-10.0,-23.3,-36.8,55,51,43,30.30,30.19,0,0,3,0.00
2013-1-4,8.4,-7.4,-19.2,-7.9,-20.9,-32.0,56,51,45,30.25,30.09,1,0,4,0.00
2013-1-5,12.3,-5.6,-18.7,-3.1,-18.9,-32.1,57,52,45,30.33,30.16,1,0,3,0.00
2013-1-6,11.7,-2.7,-17.5,-5.1,-16.0,-30.6,59,52,45,30.33,30.09,1,0,3,0.00
2013-1-7,17.4,1.4,-8.8,-0.8,-11.5,-20.7,60,54,43,30.14,30.01,1,0,3,0.00
2013-1-8,17.5,1.6,-10.9,0.2,-11.6,-22.9,61,53,45,30.32,30.05,3,0,4,0.00
2013-1-9,20.9,3.3,-7.7,4.3,-9.0,-19.6,62,56,47,30.40,30.18,2,0,5,0.00
2013-1-10,17.8,5.0,-9.3,4.4,-6.9,-21.0,64,57,50,30.17,29.66,1,0,3,0.00
2013-1-11,20.5,11.6,-1.3,12.1,-1.6,-12.3,77,56,33,29.82,29.47,15,3,24,0.00
2013-1-12,9.3,-5.5,-18.6,-8.4,-19.0,-31.5,61,51,42,29.88,29.78,2,0,4,0.00
2013-1-13,5.7,-5.8,-17.3,-10.7,-19.2,-30.8,58,51,45,29.91,29.82,1,0,4,0.00
2013-1-14,6.3,-7.0,-18.5,-11.7,-20.8,-31.6,55,50,42,30.01,29.88,1,0,4,0.00
2013-1-15,4.9,-10.4,-26.1,-13.4,-24.8,-39.9,54,48,40,30.27,30.01,1,0,4,0.00
2013-1-16,14.9,-2.0,-13.2,-3.1,-15.6,-25.6,58,52,43,30.37,30.26,1,0,4,0.00
2013-1-17,17.9,0.3,-12.9,2.3,-12.1,-24.8,61,55,48,30.44,30.32,2,0,4,0.00
2013-1-18,17.6,-3.4,-13.6,3.3,-14.9,-25.5,63,57,53,30.39,30.26,1,0,4,0.00
2013-1-19,20.1,-0.3,-12.6,2.8,-12.8,-24.8,61,55,46,30.42,30.29,1,0,4,0.00
2013-1-20,19.0,-0.4,-16.2,1.1,-13.4,-28.6,60,53,44,30.35,30.21,1,0,4,0.00
2013-1-21,21.3,2.3,-12.2,2.5,-11.0,-24.2,60,53,42,30.34,30.23,2,0,5,0.00
2013-1-22,22.0,2.3,-12.3,2.1,-11.2,-24.5,60,53,40,30.39,30.29,2,0,6,0.00
2013-1-23,18.6,1.8,-15.2,-0.5,-11.9,-28.1,60,52,39,30.44,30.32,2,0,6,0.00
2013-1-24,28.2,14.4,-2.4,13.3,1.0,-12.9,64,55,44,30.34,30.21,1,0,5,0.00
2013-1-25,39.7,30.1,22.9,27.7,20.8,12.6,78,68,60,30.25,30.16,1,0,4,0.28
2013-1-26,37.3,31.6,26.7,29.2,25.6,20.5,83,78,71,30.17,29.85,2,0,5,0.27
2013-1-27,42.0,34.8,23.4,31.8,26.6,15.1,83,72,58,29.93,29.86,5,1,9,0.41
2013-1-28,33.0,25.4,18.5,23.6,16.6,9.1,77,69,53,29.89,29.73,5,1,13,0.11
2013-1-29,21.7,12.3,-1.5,11.5,-0.8,-12.3,70,56,35,29.93,29.70,8,1,14,0.00
2013-1-30,23.5,13.4,-6.2,12.3,1.7,-17.5,73,59,44,30.08,29.91,7,1,15,0.00
2013-1-31,34.0,22.2,8.7,16.6,10.5,-1.0,76,61,42,30.23,30.05,6,1,14,0.01
2013-2-1,27.8,11.0,-2.5,12.2,-0.2,-13.0,65,60,50,30.28,30.15,2,0,6,0.00
2013-2-2,23.7,9.3,-3.3,7.5,-2.4,-13.8,65,59,49,30.40,30.27,2,0,5,0.00
2013-2-3,22.4,10.4,-1.3,7.2,-1.4,-11.5,65,58,50,30.34,30.08,1,0,3,0.00
2013-2-4,26.1,13.2,3.6,12.7,3.1,-6.2,69,64,55,30.16,30.06,2,0,5,0.01
2013-2-5,27.8,11.3,-3.3,10.2,-0.9,-14.2,66,58,45,30.21,30.04,2,0,5,0.00
2013-2-6,29.4,14.3,-1.8,12.7,2.2,-12.3,67,59,46,30.07,29.97,2,0,5,0.00
2013-2-7,28.8,18.3,8.4,15.4,8.3,-1.8,74,65,52,30.20,30.07,3,0,6,0.00
2013-2-8,42.7,20.8,4.5,23.0,7.8,-6.2,68,58,39,30.11,29.76,8,1,20,0.01
2013-2-9,30.2,24.4,17.3,18.3,13.9,8.7,74,64,50,29.76,29.59,8,1,15,0.05
2013-2-10,25.0,17.8,5.8,13.3,6.2,-5.8,74,60,46,29.88,29.72,3,0,8,0.01
2013-2-11,27.6,15.7,2.9,11.1,3.6,-7.9,68,59,42,29.99,29.83,5,0,13,0.03
2013-2-12,20.8,7.6,-3.4,2.3,-6.9,-15.9,60,51,43,30.12,29.99,2,0,6,0.00
2013-2-13,27.2,8.9,-5.4,10.2,-4.5,-17.1,62,54,44,30.16,30.05,2,0,5,0.00
2013-2-14,30.9,15.8,3.6,14.9,3.3,-6.7,64,57,46,30.17,30.07,12,1,16,0.00
2013-2-15,31.6,15.1,1.4,9.6,0.2,-8.9,64,53,33,30.26,30.16,7,1,14,0.00
2013-2-16,29.0,13.2,-1.7,9.0,-1.1,-12.9,62,53,40,30.35,30.15,2,0,6,0.00
2013-2-17,23.9,11.3,-2.5,12.0,-2.0,-13.3,70,55,42,30.15,29.78,1,0,6,0.00
2013-2-18,29.3,19.6,7.3,16.7,4.2,-6.7,75,53,27,30.09,29.79,7,1,13,0.00
2013-2-19,23.2,8.6,-7.1,1.9,-6.9,-19.4,60,49,35,30.09,29.79,2,0,5,0.00
2013-2-20,31.3,17.5,5.1,19.4,5.9,-5.7,77,61,41,29.79,29.57,6,1,12,0.02
2013-2-21,30.0,22.4,9.5,19.4,12.7,0.0,75,66,56,29.85,29.61,13,2,17,0.10
2013-2-22,26.7,14.3,5.3,15.4,4.2,-4.0,70,64,49,29.99,29.84,5,0,10,0.05
2013-2-23,20.4,9.0,-4.2,10.7,-0.9,-15.1,73,64,52,29.98,29.71,3,0,6,0.02
2013-2-24,21.4,13.0,-0.8,11.1,2.7,-11.3,73,63,47,29.97,29.71,4,0,9,0.00
2013-2-25,22.3,11.0,3.7,6.8,-0.3,-7.1,70,60,49,30.07,29.93,3,1,10,0.02
2013-2-26,24.9,10.3,-2.5,12.4,-1.6,-13.0,63,58,50,30.06,29.82,7,0,13,0.00
2013-2-27,21.7,7.0,-8.5,3.0,-6.6,-20.4,61,53,42,30.21,30.05,2,0,6,0.02
2013-2-28,23.2,6.7,-11.7,4.4,-7.7,-23.7,59,51,39,30.30,30.20,4,0,6,0.00
2013-3-1,38.4,23.6,8.4,19.2,9.9,-1.5,67,56,43,30.36,30.23,9,2,18,0.01
2013-3-2,36.8,21.8,6.2,18.5,9.4,-3.4,68,59,46,30.42,30.21,3,0,6,0.00
2013-3-3,45.3,26.6,9.0,26.3,14.2,0.6,76,60,33,30.22,29.89,7,1,14,0.00
2013-3-4,39.9,30.5,15.5,27.9,19.5,-0.3,79,64,45,30.15,29.84,10,2,20,0.10
2013-3-5,27.2,13.6,0.9,6.1,-2.0,-11.9,60,50,37,30.32,30.15,2,0,6,0.00
2013-3-6,33.6,17.4,-0.2,12.2,2.8,-10.6,63,53,38,30.21,30.00,2,0,6,0.00
2013-3-7,43.6,25.8,10.2,19.9,10.8,0.8,67,54,34,30.09,29.98,2,0,6,0.00
2013-3-8,41.7,30.6,20.6,26.0,16.6,8.6,77,57,39,30.03,29.75,4,0,10,0.00
2013-3-9,31.8,27.8,18.3,23.6,18.6,10.1,79,68,55,29.97,29.70,11,2,18,0.17
2013-3-10,34.9,21.7,6.4,15.7,8.0,-4.2,70,56,41,30.17,29.96,14,2,20,0.02
2013-3-11,40.5,24.8,8.5,19.7,10.5,-1.2,67,55,36,30.18,30.05,7,1,10,0.00
2013-3-12,46.0,33.4,21.2,23.0,19.4,14.4,78,58,37,30.25,30.11,9,1,14,0.00
2013-3-13,48.6,31.3,16.7,24.3,17.8,8.8,73,59,35,30.34,30.25,4,1,8,0.00
2013-3-14,49.6,33.8,20.2,23.5,18.0,11.7,70,54,33,30.40,30.26,3,1,8,0.00
2013-3-15,56.2,35.4,20.4,26.9,19.2,12.5,72,54,27,30.30,30.05,4,0,7,0.00
2013-3-16,44.0,33.3,25.8,33.5,24.5,17.4,81,70,56,30.07,29.92,6,1,19,0.05
2013-3-17,46.8,33.8,26.9,28.1,18.8,3.2,81,59,23,29.94,29.73,20,3,34,0.12
2013-3-18,42.5,33.1,25.6,12.4,7.0,0.2,50,34,22,30.00,29.88,16,4,28,0.00
2013-3-19,44.5,33.7,24.8,15.3,6.0,-7.3,59,35,11,30.19,30.00,7,1,17,0.00
2013-3-20,45.2,29.5,14.1,26.2,8.5,-4.0,71,43,24,30.20,29.93,4,1,12,0.00
2013-3-21,41.4,33.4,22.7,30.5,21.5,7.9,81,63,25,29.93,29.73,15,2,29,0.16
2013-3-22,44.7,27.8,11.9,12.7,5.0,-0.3,60,41,20,29.89,29.66,13,2,27,0.00
2013-3-23,28.8,20.7,12.5,8.3,1.9,-9.8,59,44,22,30.01,29.75,10,3,18,0.00
2013-3-24,30.0,15.0,1.8,5.3,-4.2,-13.1,53,43,22,30.06,29.92,11,2,21,0.00
2013-3-25,38.4,18.8,2.0,3.1,-5.7,-15.6,46,34,20,30.13,30.04,8,1,16,0.00
2013-3-26,52.0,31.2,15.1,17.9,6.5,-4.0,50,36,22,30.13,29.95,12,2,23,0.00
2013-3-27,55.5,41.1,26.5,18.9,15.6,10.5,60,38,17,30.10,29.98,10,2,21,0.00
2013-3-28,55.7,38.5,23.8,23.2,17.7,12.6,66,45,25,30.15,30.07,5,1,13,0.00
2013-3-29,56.8,40.3,26.4,26.5,21.1,15.8,66,48,27,30.21,30.12,10,1,20,0.00
2013-3-30,58.0,38.6,25.7,25.2,20.5,16.0,72,52,21,30.22,30.09,9,1,22,0.00
2013-3-31,59.4,41.5,24.7,24.2,18.7,11.9,68,44,16,30.17,30.04,7,1,21,0.00
2013-4-1,59.4,42.6,29.2,28.7,20.4,13.8,67,44,22,30.11,29.92,13,2,27,0.00
2013-4-2,54.7,38.9,27.0,29.1,20.5,9.3,78,52,17,30.04,29.89,7,1,17,0.01
2013-4-3,54.2,41.0,31.8,28.9,22.2,10.0,82,53,18,30.18,30.02,6,1,15,0.00
2013-4-4,61.8,42.2,22.9,23.6,18.1,12.9,68,41,19,30.24,30.10,8,1,13,0.00
2013-4-5,57.2,42.9,28.8,31.5,23.4,18.1,72,49,22,30.14,29.93,17,2,34,0.00
2013-4-6,58.6,42.7,28.2,31.7,23.1,12.0,80,52,17,30.05,29.94,10,2,20,0.01
2013-4-7,54.6,42.4,32.5,30.8,25.8,18.3,80,55,24,30.01,29.84,14,2,27,0.02
2013-4-8,60.2,42.7,31.8,31.7,26.2,19.0,73,55,21,29.87,29.56,13,2,28,0.00
2013-4-9,39.2,32.2,19.8,30.4,23.0,11.6,82,69,48,29.89,29.57,10,2,16,0.32
2013-4-10,33.5,23.2,14.1,18.0,10.7,2.9,71,59,51,29.99,29.88,11,2,20,0.16
2013-4-11,46.5,31.1,20.7,28.0,18.1,10.5,71,59,41,29.98,29.88,8,1,19,0.01
2013-4-14,46.8,38.2,32.5,32.4,20.8,11.2,82,53,24,29.80,29.65,12,3,25,0.29
2013-4-15,54.6,41.8,32.6,31.1,26.1,19.3,75,56,33,29.76,29.67,11,2,21,0.00
2013-4-16,62.8,44.9,27.6,25.5,20.4,11.7,74,44,15,29.78,29.64,11,4,30,0.00
2013-4-17,46.4,32.5,21.1,26.8,19.0,9.1,74,58,30,29.93,29.69,13,3,27,0.01
2013-4-18,31.1,23.7,16.1,9.3,1.5,-4.6,60,40,22,30.18,29.93,9,3,21,0.00
2013-4-19,47.5,30.7,13.8,15.4,7.7,0.3,56,39,23,30.20,30.03,10,2,28,0.00
2013-4-20,48.1,36.6,25.9,31.5,23.5,14.4,79,60,37,30.10,29.96,8,1,19,0.12
2013-4-21,56.2,39.5,23.4,28.2,21.1,13.5,81,53,19,30.15,30.04,10,2,19,0.04
2013-4-22,58.1,45.5,34.9,33.8,24.0,13.2,80,47,17,30.07,29.89,13,3,28,0.00
2013-4-23,44.2,34.6,24.4,23.6,15.4,7.0,73,47,25,30.10,29.92,9,3,32,0.02
2013-4-24,49.7,34.3,20.9,11.0,5.2,0.2,52,31,15,30.17,30.08,13,2,20,0.00
2013-4-25,62.8,42.0,24.5,25.1,15.7,7.9,58,37,17,30.16,29.98,10,2,21,0.00
2013-4-26,61.8,43.8,25.1,22.8,15.7,7.8,63,36,12,30.26,30.06,7,1,17,0.00
2013-4-27,63.8,45.4,26.1,23.7,15.1,10.0,59,34,13,30.30,30.15,7,1,17,0.00
2013-4-28,69.7,47.0,24.9,24.4,16.3,12.1,60,33,13,30.20,30.02,9,2,19,0.00
2013-4-29,69.8,51.0,29.8,26.6,19.7,15.0,61,33,15,30.08,29.90,12,2,23,0.00
2013-4-30,71.4,54.3,32.4,27.9,17.9,10.1,55,28,13,29.92,29.82,16,4,32,0.00
2013-5-1,54.5,42.2,29.8,34.3,22.7,12.1,82,49,19,30.28,29.83,14,4,26,0.08
2013-5-2,48.9,35.5,18.5,14.2,5.5,-2.0,60,32,13,30.40,30.29,8,2,21,0.00
2013-5-3,65.3,41.9,18.5,18.2,9.4,4.2,59,30,11,30.34,30.02,9,1,21,0.00
2013-5-4,64.3,45.0,25.0,25.1,15.0,9.1,53,33,13,30.10,29.98,8,1,19,0.00
2013-5-5,62.1,48.0,34.5,27.0,23.1,16.1,60,40,18,30.11,30.05,8,1,22,0.00
2013-5-6,58.2,44.9,38.4,39.5,31.6,26.1,80,61,34,30.10,30.00,7,2,18,0.11
2013-5-7,55.0,43.6,36.9,37.2,33.0,27.2,82,68,37,30.10,30.02,5,1,13,0.05
2013-5-8,50.9,40.4,35.1,33.8,31.1,27.8,82,70,41,30.10,30.02,5,1,14,0.07
2013-5-9,54.2,42.4,33.9,35.7,30.7,27.0,84,65,40,30.20,30.08,6,1,18,0.16
2013-5-10,61.2,44.4,29.2,33.1,27.5,22.2,77,55,27,30.32,30.18,7,1,16,0.01
2013-5-11,65.3,48.2,30.8,31.9,26.3,21.0,74,46,21,30.38,30.26,9,2,20,0.00
2013-5-12,68.8,53.0,36.8,34.9,28.3,24.5,68,42,19,30.36,30.23,6,1,16,0.00
2013-5-13,76.0,54.4,34.7,38.1,30.6,25.6,72,44,18,30.36,30.23,8,1,13,0.00
2013-5-14,77.2,54.3,36.5,43.3,34.1,26.1,73,50,19,30.25,30.10,8,1,19,0.02
2013-5-15,73.2,51.9,38.9,43.0,36.7,31.3,76,59,25,30.16,30.02,7,1,19,0.00
2013-5-16,74.2,54.6,36.4,40.0,31.1,24.3,78,47,17,30.11,29.98,10,2,19,0.00
2013-5-17,76.0,56.0,36.9,32.4,23.5,13.8,65,34,10,30.11,29.96,10,2,20,0.00
2013-5-18,65.8,48.7,34.7,33.1,25.8,18.3,70,43,17,30.08,29.96,10,2,22,0.00
2013-5-19,52.0,40.1,34.3,37.6,31.4,28.3,84,71,43,30.05,29.97,8,1,18,0.17
2013-5-20,58.9,42.8,32.7,36.5,30.5,26.4,82,64,32,30.11,30.00,8,1,21,0.02
2013-5-21,65.2,48.3,31.0,33.6,26.6,19.7,80,49,18,30.13,30.00,9,2,20,0.00
2013-5-22,75.5,55.4,35.2,31.8,26.4,21.7,67,37,16,30.06,29.94,7,2,17,0.00
2013-5-23,80.4,59.4,37.7,32.7,24.3,18.0,60,31,10,30.08,29.98,12,2,22,0.00
2013-5-24,76.7,57.3,34.7,27.2,21.7,15.1,63,30,11,30.15,30.06,8,2,18,0.00
2013-5-25,76.3,56.7,34.5,30.6,22.5,15.5,57,30,13,30.18,30.05,6,1,18,0.00
2013-5-26,76.7,56.6,37.5,30.4,24.6,15.5,58,33,14,30.15,30.01,6,1,15,0.00
2013-5-27,69.0,54.2,34.4,28.1,22.1,14.4,60,32,13,30.10,29.95,9,2,19,0.00
2013-5-28,70.2,52.9,34.8,29.3,24.0,20.3,57,35,17,30.00,29.81,7,1,13,0.00
2013-5-29,58.5,49.1,41.0,37.4,30.5,21.0,78,51,27,29.94,29.83,12,3,33,0.03
2013-5-30,60.6,49.0,32.0,27.3,21.5,15.0,70,38,19,30.02,29.91,15,5,27,0.00
2013-5-31,61.9,53.5,41.4,25.6,14.9,3.6,41,23,11,30.16,30.02,11,4,24,0.00
2013-6-1,68.3,51.2,31.1,32.0,21.6,13.5,51,33,18,30.23,30.14,5,1,12,0.00
2013-6-2,77.2,55.4,32.3,32.5,25.6,19.9,67,36,14,30.24,30.03,13,2,19,0.00
2013-6-3,76.0,57.6,37.5,36.3,29.5,25.5,64,38,16,30.12,30.02,13,2,24,0.00
2013-6-4,76.4,59.0,39.1,39.3,32.5,27.5,70,40,19,30.16,30.06,14,2,30,0.00
2013-6-5,75.0,61.1,41.6,38.3,28.7,14.9,67,34,11,30.16,30.08,10,3,26,0.00
2013-6-6,74.7,58.9,38.2,37.4,30.1,26.1,63,36,18,30.20,30.08,5,1,17,0.00
2013-6-7,74.3,59.0,42.8,44.2,33.4,26.6,66,41,19,30.19,30.05,7,1,16,0.01
2013-6-8,77.2,60.3,39.7,41.2,33.6,29.8,72,41,19,30.12,30.03,8,1,14,0.00
2013-6-9,82.8,63.1,40.2,41.0,33.7,26.5,73,39,13,30.21,30.12,5,1,15,0.00
2013-6-10,86.7,66.2,42.8,41.0,32.5,27.1,68,34,12,30.22,30.08,9,1,19,0.00
2013-6-11,80.1,64.5,45.3,36.3,28.8,19.4,60,30,11,30.23,30.10,12,3,28,0.00
2013-6-12,84.0,63.7,44.0,36.7,29.8,23.3,56,32,12,30.28,30.17,6,1,16,0.00
2013-6-13,80.4,64.0,47.1,37.4,31.7,26.9,53,32,16,30.25,30.13,13,1,26,0.00
2013-6-14,80.4,66.0,47.4,43.6,30.3,11.5,63,32,9,30.18,30.06,8,2,19,0.00
2013-6-15,76.8,60.1,38.7,36.7,28.4,21.7,55,32,17,30.23,30.13,13,1,28,0.00
2013-6-16,72.3,57.8,42.3,47.6,37.3,31.3,69,48,27,30.28,30.18,8,1,18,0.07
2013-6-17,78.0,60.5,43.2,44.4,36.0,27.7,74,45,17,30.27,30.16,8,1,19,0.00
2013-6-18,79.9,62.0,43.7,42.7,34.0,20.9,65,40,15,30.22,30.03,11,1,15,0.00
2013-6-19,81.8,62.2,39.5,35.0,23.8,10.9,61,29,8,30.09,29.96,10,2,24,0.00
2013-6-20,80.9,61.6,40.9,35.7,24.4,15.8,52,27,11,30.11,30.02,6,1,15,0.00
2013-6-21,79.2,62.4,41.9,34.1,26.6,17.0,55,29,11,30.15,30.04,9,1,16,0.00
2013-6-22,77.9,61.2,39.9,34.5,25.5,15.9,58,30,11,30.13,30.01,15,2,22,0.00
2013-6-23,77.9,60.8,41.3,36.8,28.5,23.9,53,32,15,30.14,30.00,5,1,23,0.00
2013-6-24,77.6,60.6,41.6,33.7,27.2,18.0,60,32,12,30.11,30.01,7,1,18,0.00
2013-6-25,77.6,64.3,46.0,37.5,29.1,20.9,45,28,17,30.22,30.07,8,2,16,0.00
2013-6-26,84.6,65.2,43.5,41.0,35.0,30.0,64,36,17,30.30,30.21,3,0,11,0.00
2013-6-27,89.2,68.5,47.5,42.0,36.6,31.2,62,35,13,30.38,30.28,6,1,13,0.00
2013-6-28,86.5,67.3,53.1,46.5,39.5,33.7,56,39,17,30.40,30.25,10,1,18,0.00
2013-6-29,82.3,65.8,53.1,50.9,43.1,39.4,67,46,23,30.35,30.20,7,1,23,0.00
2013-6-30,83.6,64.6,48.8,50.6,42.9,37.3,71,49,22,30.30,30.17,9,1,20,0.00
2013-7-1,83.1,65.3,48.5,46.6,40.2,31.3,70,45,16,30.34,30.20,11,1,16,0.00
2013-7-2,82.3,66.5,51.5,46.8,40.2,33.1,64,41,17,30.30,30.16,8,1,18,0.00
2013-7-3,80.7,62.9,46.5,45.9,38.5,33.2,66,44,19,30.24,30.09,9,1,22,0.00
2013-7-4,80.8,67.2,51.6,44.8,40.8,36.6,66,40,24,30.19,30.07,7,1,17,0.00
2013-7-5,81.9,68.8,57.7,52.6,43.1,36.6,61,41,23,30.15,30.04,7,1,14,0.00
2013-7-6,80.8,68.4,54.6,48.4,44.4,40.9,66,44,27,30.18,30.08,9,1,13,0.00
2013-7-7,83.0,69.7,55.0,50.0,45.5,41.6,69,44,24,30.27,30.14,4,1,15,0.00
2013-7-8,82.4,67.7,52.6,51.3,43.8,33.2,75,47,18,30.31,30.23,7,1,24,0.00
2013-7-9,84.7,68.1,50.4,47.6,38.6,33.0,61,37,16,30.37,30.24,3,0,10,0.00
2013-7-10,86.0,69.7,55.3,50.0,42.6,37.6,61,40,20,30.33,30.17,10,1,18,0.00
2013-7-11,86.6,68.0,53.5,51.4,44.6,39.4,65,45,20,30.27,30.13,10,1,21,0.00
2013-7-12,78.7,64.1,55.5,56.7,51.2,47.1,78,64,36,30.25,30.17,5,1,19,0.41
2013-7-13,77.2,64.5,55.9,54.1,51.3,46.0,78,64,34,30.29,30.23,6,1,14,0.00
2013-7-14,78.7,64.6,53.6,55.0,50.2,44.7,85,62,33,30.31,30.18,6,1,14,0.03
2013-7-15,77.5,61.4,52.7,54.3,50.3,46.5,82,68,39,30.27,30.16,11,1,22,0.02
2013-7-16,81.7,65.1,52.6,53.8,46.6,37.9,83,55,26,30.30,30.16,7,1,15,0.00
2013-7-17,81.1,65.9,51.2,52.7,46.5,42.1,75,52,27,30.34,30.22,7,1,15,0.00
2013-7-18,79.1,64.2,54.2,53.8,49.4,43.8,78,60,32,30.34,30.21,5,1,15,0.01
2013-7-19,81.2,61.4,49.2,53.4,48.2,42.2,80,65,27,30.31,30.19,9,1,22,0.00
2013-7-20,81.4,65.5,51.3,55.9,45.5,37.4,80,53,22,30.27,30.09,4,1,11,0.00
2013-7-21,83.8,68.0,51.5,47.6,39.5,31.4,61,39,17,30.20,30.09,3,0,10,0.00
2013-7-22,83.2,65.5,48.6,46.0,39.2,34.8,63,41,20,30.25,30.12,4,0,11,0.00
2013-7-23,87.2,66.7,44.9,42.8,35.3,26.6,62,35,13,30.28,30.15,7,1,17,0.00
2013-7-24,73.1,62.6,55.3,50.5,43.3,37.1,63,50,33,30.35,30.22,7,1,18,0.00
2013-7-25,79.4,64.1,53.6,53.4,46.8,41.2,81,56,26,30.32,30.22,3,0,11,0.10
2013-7-26,82.1,65.6,48.0,51.1,42.6,32.3,77,48,18,30.35,30.23,5,1,13,0.00
2013-7-27,79.5,61.4,50.3,55.5,46.6,39.5,83,61,27,30.31,30.14,4,0,14,0.52
2013-7-28,65.9,58.3,54.9,54.8,52.0,49.5,88,80,63,30.20,30.10,3,0,8,0.45
2013-7-29,74.5,60.3,49.0,53.2,48.5,44.0,88,68,34,30.35,30.15,18,2,35,0.32
2013-7-30,77.2,59.7,45.1,52.8,42.6,35.1,86,59,22,30.41,30.33,7,1,17,0.01
2013-7-31,81.8,62.6,43.7,45.7,39.8,34.2,77,48,19,30.45,30.28,5,0,14,0.00
2013-8-1,66.8,57.7,50.7,53.4,46.0,39.0,82,66,51,30.36,30.25,5,0,11,0.08
2013-8-2,78.9,63.7,51.6,55.8,48.6,41.9,87,62,28,30.27,30.18,4,0,10,0.02
2013-8-3,76.4,59.6,49.4,53.8,46.9,42.1,80,65,31,30.34,30.24,5,0,15,0.02
2013-8-4,78.5,58.6,44.3,51.1,45.5,39.5,84,64,32,30.36,30.26,9,1,17,0.01
2013-8-5,77.4,60.7,49.7,54.7,48.1,43.1,78,64,37,30.31,30.19,7,1,16,0.01
2013-8-6,75.6,58.1,49.5,51.7,47.0,42.1,83,69,31,30.27,30.18,13,1,14,0.02
2013-8-7,65.4,55.4,50.6,49.8,47.0,44.3,86,74,51,30.25,30.18,4,0,12,0.14
2013-8-8,73.2,57.0,48.2,50.4,44.7,36.0,85,67,26,30.29,30.14,5,1,13,0.18
2013-8-9,74.5,58.9,45.2,48.0,42.8,35.2,83,59,26,30.33,30.22,9,1,18,0.00
2013-8-10,74.3,55.4,42.8,45.7,41.2,35.6,78,61,27,30.37,30.27,9,1,22,0.03
2013-8-11,75.1,57.2,41.5,49.2,40.5,35.2,82,58,24,30.37,30.22,5,1,16,0.00
2013-8-12,71.9,56.3,44.8,50.0,41.8,37.4,77,60,31,30.33,30.25,6,0,16,0.00
2013-8-13,74.5,56.1,41.0,51.8,39.9,31.6,82,59,22,30.35,30.24,3,0,11,0.03
2013-8-14,78.3,57.2,40.0,42.7,36.3,31.6,78,50,21,30.35,30.24,4,0,15,0.00
2013-8-15,78.7,57.7,38.7,42.9,35.2,30.4,74,47,20,30.35,30.25,5,0,16,0.00
2013-8-16,82.7,59.7,39.7,42.9,35.3,28.8,74,45,15,30.38,30.26,3,0,9,0.00
2013-8-17,82.5,61.2,40.6,44.0,36.9,32.5,75,45,17,30.36,30.21,5,0,11,0.00
2013-8-18,78.9,58.8,46.6,52.2,43.5,37.3,76,59,27,30.33,30.25,7,0,18,0.01
2013-8-19,83.4,62.1,44.0,49.9,44.0,38.5,83,56,22,30.35,30.20,5,0,14,0.00
2013-8-20,83.3,62.4,46.8,49.1,43.6,35.2,77,54,19,30.31,30.19,10,1,21,0.03
2013-8-21,82.7,60.3,45.1,50.9,44.7,38.4,80,59,26,30.33,30.22,8,0,16,0.00
2013-8-22,81.7,62.1,49.5,51.2,46.5,40.9,81,60,24,30.35,30.20,7,0,17,0.00
2013-8-23,74.9,60.9,49.5,50.1,45.4,42.0,79,59,31,30.28,30.14,6,0,14,0.00
2013-8-24,71.6,58.8,49.0,50.7,45.9,42.0,84,64,36,30.29,30.21,6,0,9,0.02
2013-8-25,70.8,60.6,50.3,54.2,49.3,44.4,83,67,47,30.34,30.25,3,0,10,0.02
2013-8-26,78.0,63.3,54.9,55.2,51.6,46.3,84,68,33,30.36,30.26,3,0,11,0.12
2013-8-27,81.1,61.8,46.6,52.6,47.0,41.8,87,62,27,30.33,30.18,5,0,16,0.00
2013-8-28,84.1,64.4,49.0,52.4,46.0,40.6,81,55,22,30.31,30.20,4,0,13,0.00
2013-8-29,85.1,65.1,47.1,50.9,44.3,35.4,78,51,17,30.38,30.25,8,1,15,0.00
2013-8-30,82.6,67.1,56.3,51.9,46.7,40.0,71,50,24,30.37,30.25,5,0,14,0.00
2013-8-31,80.4,62.9,50.8,52.6,46.9,42.7,75,58,27,30.30,30.21,6,1,14,0.01
2013-9-1,80.5,59.4,46.8,52.8,47.6,41.6,83,67,30,30.32,30.20,6,0,13,0.02
2013-9-2,81.0,63.8,53.3,54.6,49.0,44.3,82,61,28,30.33,30.21,3,0,11,0.09
2013-9-3,81.1,63.7,48.6,50.7,45.5,39.3,79,55,23,30.34,30.23,8,1,15,0.00
2013-9-4,84.3,63.6,52.0,52.8,47.1,41.7,78,58,23,30.38,30.28,3,0,10,0.00
2013-9-5,83.7,64.3,48.2,50.1,44.4,34.2,81,54,17,30.40,30.25,4,0,11,0.00
2013-9-6,84.8,63.8,47.4,50.6,42.6,34.7,78,50,17,30.38,30.21,10,1,19,0.00
2013-9-7,82.4,61.3,46.0,51.3,43.1,38.0,77,55,21,30.31,30.18,4,0,7,0.01
2013-9-8,78.6,62.5,50.9,49.9,44.5,41.6,72,54,28,30.25,30.08,4,0,20,0.00
2013-9-9,68.9,56.7,46.5,51.0,46.7,41.1,84,70,44,30.17,30.08,4,0,11,0.00
2013-9-10,67.9,57.6,52.0,52.7,49.7,45.3,87,76,49,30.23,30.13,4,0,14,0.04
2013-9-11,73.3,58.7,50.9,52.6,49.1,45.5,86,73,38,30.25,30.17,5,0,12,0.34
2013-9-12,70.6,54.9,45.9,53.0,47.4,41.9,89,78,46,30.29,30.14,9,0,16,0.33
2013-9-13,71.9,57.7,49.1,50.4,46.2,41.0,89,68,33,30.21,30.07,4,1,11,0.42
2013-9-14,66.9,55.3,49.4,48.6,45.4,42.2,85,71,47,30.16,30.09,8,0,18,0.04
2013-9-15,67.6,53.5,45.3,48.1,44.7,40.3,84,73,45,30.27,30.15,8,1,15,0.01
2013-9-16,69.5,52.9,41.6,48.4,42.5,36.8,87,70,39,30.31,30.18,4,0,11,0.01
2013-9-17,74.5,56.0,40.3,46.4,40.8,34.9,84,60,29,30.26,30.06,3,0,10,0.00
2013-9-18,70.4,54.1,46.3,50.5,43.4,38.1,87,69,36,30.15,30.04,11,1,20,0.11
2013-9-19,69.1,52.9,40.7,48.2,37.8,26.0,88,62,24,30.21,30.12,5,1,14,0.03
2013-9-20,72.7,50.2,31.9,35.4,29.7,24.6,77,50,18,30.26,30.12,4,0,11,0.00
2013-9-21,72.3,53.3,36.5,40.8,34.6,29.0,76,53,27,30.21,30.03,5,0,12,0.00
2013-9-22,60.5,48.7,40.6,48.0,40.8,35.5,84,75,56,30.06,29.85,10,0,16,0.26
2013-9-23,56.3,45.4,37.3,37.8,33.4,25.2,84,66,33,30.24,29.87,11,2,20,0.00
2013-9-24,69.2,46.6,29.4,35.8,29.5,23.7,80,56,24,30.30,30.09,2,0,7,0.00
2013-9-25,72.3,50.2,31.2,34.3,28.8,24.8,79,49,19,30.11,29.81,9,1,18,0.00
2013-9-26,71.3,52.5,34.1,32.7,26.1,19.3,72,41,16,29.95,29.84,11,2,23,0.00
2013-9-27,54.8,43.1,31.2,39.3,30.5,18.1,83,63,34,30.15,29.85,8,2,20,0.01
2013-9-28,58.7,38.5,24.0,29.8,23.9,16.9,82,60,23,30.27,30.14,2,0,6,0.01
2013-9-29,65.3,43.7,27.2,31.9,23.8,18.4,75,51,17,30.29,30.13,8,1,17,0.00
2013-9-30,71.0,47.1,30.1,35.1,27.1,22.8,76,50,22,30.20,30.05,7,0,13,0.00
2013-10-1,73.5,49.0,30.0,33.4,27.4,22.9,77,49,19,30.21,30.04,9,0,11,0.00
2013-10-2,69.3,46.8,28.1,31.3,25.6,19.9,72,48,19,30.19,30.00,3,0,9,0.00
2013-10-3,66.5,47.5,29.7,32.9,25.7,21.4,72,47,19,30.05,29.82,10,2,18,0.00
2013-10-4,44.3,34.7,28.0,27.5,19.1,13.1,74,54,30,30.22,29.89,15,3,24,0.00
2013-10-5,51.2,34.6,20.5,21.0,16.3,11.3,71,50,22,30.33,30.20,9,1,17,0.00
2013-10-6,63.7,39.0,19.7,27.5,19.0,10.4,69,48,22,30.39,30.24,9,1,12,0.00
2013-10-7,68.9,44.1,23.9,29.2,22.6,15.8,72,47,18,30.34,30.12,2,0,8,0.00
2013-10-8,66.8,47.3,30.0,30.0,24.9,21.1,70,45,21,30.15,29.94,9,1,13,0.00
2013-10-9,66.1,46.3,29.2,30.0,21.8,14.9,73,43,17,30.02,29.92,6,1,18,0.00
2013-10-10,52.7,42.0,35.1,33.7,28.5,19.5,83,61,39,30.00,29.79,11,2,21,0.12
2013-10-11,42.4,36.7,35.3,31.6,28.1,25.6,76,71,65,30.01,29.90,6,2,15,0.00
2013-10-12,54.0,38.8,27.5,28.3,24.2,20.8,78,59,29,30.19,30.07,3,0,9,0.00
2013-10-13,62.7,44.0,29.1,35.4,26.1,20.1,73,53,22,30.16,29.99,8,2,23,0.00
2013-10-14,48.7,38.5,33.4,30.9,28.4,22.9,83,68,37,30.15,29.97,9,2,22,0.07
2013-10-15,48.7,37.4,31.0,30.8,25.7,18.9,84,65,33,30.14,30.04,5,0,11,0.01
2013-10-16,44.1,34.2,25.8,29.0,22.8,16.6,82,65,33,30.16,30.07,11,1,15,0.10
2013-10-17,50.5,32.4,18.1,22.3,15.3,10.0,73,52,24,30.17,30.00,6,1,14,0.00
2013-10-18,45.0,33.4,24.8,19.3,12.7,5.0,69,45,19,30.21,30.02,8,1,19,0.00
2013-10-19,53.8,33.0,17.5,19.9,12.7,7.1,65,46,22,30.22,30.10,5,0,14,0.00
2013-10-20,53.7,35.2,18.9,20.6,15.0,9.7,69,47,22,30.13,29.98,9,1,27,0.00
2013-10-21,54.7,36.6,22.9,23.1,16.7,12.4,71,48,19,30.24,30.08,4,1,14,0.00
2013-10-22,59.7,36.7,18.9,22.7,16.5,9.7,69,47,19,30.32,30.16,3,0,12,0.00
2013-10-23,62.2,38.1,19.6,23.7,16.8,10.8,69,46,18,30.30,30.14,3,0,10,0.00
2013-10-24,61.0,38.8,20.1,21.4,15.9,10.2,66,43,19,30.29,30.15,3,0,5,0.00
2013-10-25,49.8,36.9,23.8,35.4,24.2,14.0,75,60,43,30.28,30.19,8,1,16,0.00
2013-10-26,57.8,39.8,27.4,32.3,24.7,18.7,77,58,23,30.36,30.23,3,0,8,0.00
2013-10-27,57.3,37.1,19.5,28.3,19.6,11.5,71,52,25,30.27,29.97,9,1,17,0.00
2013-10-28,58.9,42.9,28.9,27.3,19.3,13.9,71,43,18,30.00,29.88,8,2,19,0.00
2013-10-29,52.1,40.8,32.4,30.9,21.7,13.2,81,49,23,29.96,29.86,17,2,28,0.00
2013-10-30,39.4,29.2,17.7,26.0,19.8,10.2,79,68,44,30.00,29.91,5,1,16,0.13
2013-10-31,35.9,30.1,24.2,22.0,18.4,15.9,76,62,44,30.08,29.95,12,2,20,0.00
2013-11-1,44.4,33.6,24.1,25.7,18.7,13.3,81,57,31,30.29,30.07,7,1,18,0.00
2013-11-2,23.7,23.5,23.3,13.6,13.2,13.0,65,64,64,30.28,30.27,0,0,2,0.00
2013-11-3,54.7,34.9,17.2,27.1,15.9,8.1,75,49,23,30.05,29.77,12,2,27,0.00
2013-11-4,42.0,31.9,18.4,27.2,18.7,9.6,76,59,37,29.99,29.87,2,0,5,0.00
2013-11-5,36.0,27.7,13.7,27.4,12.5,3.3,78,55,27,30.22,29.89,10,2,22,0.00
2013-11-6,40.0,22.4,10.0,13.9,6.1,-1.5,62,51,32,30.39,30.22,3,0,8,0.00
2013-11-7,47.2,27.6,12.5,16.6,11.0,3.5,69,52,27,30.45,30.20,2,0,5,0.00
2013-11-8,56.2,31.9,14.5,19.0,11.8,5.8,69,47,19,30.21,30.05,11,1,19,0.00
2013-11-9,55.0,32.8,16.1,19.6,12.6,6.9,68,46,21,30.29,30.17,3,0,9,0.00
2013-11-10,56.1,32.2,14.0,18.6,11.4,4.7,68,46,19,30.36,30.22,5,0,9,0.00
2013-11-11,54.9,31.7,13.8,19.3,11.4,4.2,67,46,21,30.43,30.29,3,0,9,0.00
2013-11-12,55.3,31.3,15.3,18.1,10.2,4.2,68,45,13,30.53,30.37,2,0,6,0.00
2013-11-13,50.2,30.4,12.7,16.2,9.9,2.2,64,45,24,30.44,30.13,1,0,5,0.00
2013-11-14,50.8,34.2,21.2,22.5,14.3,7.6,62,46,25,30.15,29.93,5,1,14,0.00
2013-11-15,47.6,30.9,17.5,28.9,16.9,5.3,83,59,26,29.94,29.70,10,1,25,0.01
2013-11-16,36.9,31.7,25.2,27.9,24.2,19.0,83,74,59,29.75,29.64,16,3,34,0.02
2013-11-17,41.4,31.9,17.8,25.9,19.9,9.3,84,62,42,30.20,29.74,6,1,12,0.12
2013-11-18,34.1,20.7,10.0,18.5,10.1,1.1,71,63,51,30.30,30.16,2,0,5,0.00
2013-11-19,33.9,23.1,9.4,21.5,12.4,0.4,72,64,50,30.18,29.95,2,0,6,0.00
2013-11-20,42.4,33.4,24.9,28.9,24.5,18.5,82,70,51,29.99,29.87,2,0,5,0.04
2013-11-21,38.9,34.7,32.6,31.6,28.8,26.3,84,79,67,30.14,29.92,2,0,5,0.13
2013-11-22,34.3,32.5,29.1,29.3,26.3,21.8,82,78,64,30.24,30.13,3,0,8,0.08
2013-11-23,38.1,32.3,25.5,26.4,22.9,18.7,79,68,58,30.26,30.14,5,1,7,0.03
2013-11-24,35.7,30.1,22.8,25.6,22.3,17.0,79,73,59,30.14,29.95,1,0,6,0.08
2013-11-25,33.9,24.8,15.5,21.0,16.3,7.9,80,70,58,30.26,29.96,2,0,6,0.01
2013-11-26,26.0,19.6,13.4,16.9,11.9,5.1,76,72,67,30.35,30.25,3,0,6,0.00
2013-11-27,28.0,17.2,8.6,15.1,8.4,0.5,75,68,58,30.32,30.17,1,0,4,0.00
2013-11-28,35.5,19.3,7.5,18.1,8.9,-1.0,71,64,47,30.23,30.12,2,0,4,0.00
2013-11-29,35.4,19.9,7.6,17.5,8.9,-1.0,71,63,45,30.31,30.20,1,0,4,0.00
2013-11-30,34.6,19.0,7.6,16.5,7.8,-1.2,70,62,46,30.33,30.20,1,0,5,0.00
2013-12-1,15.2,9.7,6.5,5.2,0.6,-2.7,68,66,64,30.29,30.24,0,0,1,0.00
2013-12-2,45.8,34.9,23.1,22.2,17.3,12.8,71,51,29,30.14,29.81,7,1,16,0.00
2013-12-3,36.5,31.7,25.2,27.8,21.7,13.3,82,67,51,29.82,29.54,4,0,16,0.00
2013-12-4,33.3,21.3,0.3,28.1,13.3,-9.6,83,71,60,29.87,29.45,6,0,12,0.00
2013-12-5,5.8,-0.7,-7.7,-7.7,-12.9,-19.2,61,56,49,29.88,29.78,1,0,4,0.00
2013-12-6,11.1,0.3,-10.0,-4.0,-12.0,-21.1,59,56,49,30.00,29.84,1,0,5,0.00
2013-12-7,15.3,9.7,1.6,7.0,-1.0,-10.7,70,61,53,30.00,29.64,2,0,6,0.00
2013-12-8,17.8,9.9,-10.7,9.1,-2.0,-22.2,72,59,40,29.91,29.60,9,2,19,0.00
2013-12-9,10.3,-5.6,-15.6,-7.4,-18.8,-27.6,58,52,41,30.27,29.90,3,0,12,0.00
2013-12-10,0.8,-9.9,-20.7,-12.8,-22.4,-33.3,61,53,48,30.31,30.16,1,0,5,0.00
2013-12-11,10.6,-1.4,-11.1,-4.9,-13.6,-21.8,61,56,47,30.43,30.23,1,0,4,0.00
2013-12-12,10.4,-2.9,-13.4,-3.0,-14.7,-25.7,61,56,53,30.46,30.16,1,0,3,0.00
2013-12-13,11.7,-0.0,-13.0,0.0,-11.1,-24.3,66,59,55,30.16,30.00,1,0,4,0.00
2013-12-14,18.6,3.9,-8.9,4.7,-6.9,-19.7,65,60,53,30.34,30.13,1,0,4,0.00
2013-12-15,21.1,5.8,-4.3,6.7,-4.8,-13.6,66,61,52,30.38,30.30,3,0,5,0.00
2013-12-16,22.4,6.8,-4.4,8.7,-4.1,-15.1,65,60,54,30.40,30.31,1,0,4,0.00
2013-12-17,22.9,6.9,-4.7,8.3,-4.3,-15.7,66,60,52,30.47,30.31,1,0,3,0.00
2013-12-18,20.8,7.9,-3.9,7.7,-2.6,-14.8,69,62,55,30.31,29.94,1,0,4,0.00
2013-12-19,29.2,18.3,7.8,15.4,7.6,-1.2,70,63,53,29.94,29.74,1,0,5,0.00
2013-12-20,29.6,20.7,7.7,17.9,10.6,-1.9,69,65,60,29.80,29.71,1,0,5,0.01
2013-12-21,25.0,15.9,6.4,12.1,4.5,-3.6,66,60,54,29.86,29.65,3,0,11,0.00
2013-12-22,22.5,9.0,-4.8,6.2,-3.3,-15.5,63,57,47,30.16,29.87,1,0,4,0.00
2013-12-23,32.2,20.2,9.2,14.7,7.9,-2.2,70,59,46,30.32,30.15,9,1,16,0.00
2013-12-24,35.5,17.6,5.5,21.2,4.7,-5.8,69,57,47,30.30,30.10,7,0,14,0.00
2013-12-25,20.6,4.4,-7.0,3.0,-9.8,-20.0,58,51,40,30.40,30.29,1,0,4,0.00
2013-12-26,15.5,1.2,-10.1,-1.2,-13.0,-23.4,62,51,43,30.41,30.30,1,0,4,0.00
2013-12-27,19.4,1.3,-6.9,3.8,-12.0,-19.5,56,53,48,30.41,30.27,2,0,4,0.00
2013-12-28,17.6,7.3,-5.3,4.9,-4.5,-17.0,64,58,51,30.23,29.98,1,0,3,0.00
2013-12-29,27.6,14.2,3.8,11.8,2.8,-6.0,66,60,49,30.15,29.99,2,0,5,0.00
2013-12-30,25.9,9.0,-2.9,5.7,-4.0,-14.5,66,55,40,30.27,30.12,2,0,5,0.00
2013-12-31,3.2,3.2,3.2,-7.2,-7.2,-7.5,61,61,61,30.25,30.25,0,0,0,0.00
2014-1-1,36.0,23.6,9.9,20.4,9.8,-1.9,73,56,35,30.28,30.02,7,1,16,0.00
2014-1-2,23.0,9.0,-2.6,4.8,-4.0,-13.9,61,55,44,30.33,30.20,1,0,5,0.00